StationID,Date,MaxTemp,MinTemp,Precipitation,Snowfall,SnowDepth
"USC00503605","1992-10-01",51.08,44.06,0.00,0.00,0.00
"USC00503605","1992-10-02",48.92,44.06,191.00,0.00,0.00
"USC00503605","1992-10-03",46.94,42.08,46.00,0.00,0.00
"USC00503605","1992-10-04",46.94,42.08,109.00,0.00,0.00
"USC00503605","1992-10-05",46.94,39.02,0.00,0.00,0.00
"USC00503605","1992-10-06",46.94,37.94,0.00,0.00,0.00
"USC00503605","1992-10-07",48.92,42.98,500.00,0.00,0.00
"USC00503605","1992-10-08",46.04,37.94,140.00,0.00,0.00
"USC00503605","1992-10-09",46.94,42.08,58.00,0.00,0.00
"USC00503605","1992-10-10",44.06,35.06,89.00,0.00,0.00
"USC00503605","1992-10-11",42.98,33.98,91.00,0.00,0.00
"USC00503605","1992-10-12",42.98,33.98,107.00,0.00,0.00
"USC00503605","1992-10-13",44.06,33.98,53.00,,0.00
"USC00503605","1992-10-14",44.06,28.94,5.00,0.00,0.00
"USC00503605","1992-10-15",44.06,28.04,0.00,0.00,0.00
"USC00503605","1992-10-16",44.06,28.94,0.00,0.00,0.00
"USC00503605","1992-10-17",44.06,28.04,0.00,0.00,0.00
"USC00503605","1992-10-18",44.06,28.04,135.00,191.00,203.00
"USC00503605","1992-10-19",48.92,32.00,348.00,38.00,102.00
"USC00503605","1992-10-20",,,36.00,0.00,51.00
"USC00503605","1992-10-21",48.02,35.96,196.00,0.00,0.00
"USC00503605","1992-10-22",46.04,41.00,526.00,0.00,0.00
"USC00503605","1992-10-23",51.08,42.98,241.00,0.00,0.00
"USC00503605","1992-10-24",46.94,41.00,8.00,0.00,0.00
"USC00503605","1992-10-25",48.02,42.98,114.00,0.00,0.00
"USC00503605","1992-10-26",44.96,39.92,15.00,0.00,0.00
"USC00503605","1992-10-27",48.02,39.92,241.00,0.00,0.00
"USC00503605","1992-10-28",42.08,33.08,66.00,0.00,0.00
"USC00503605","1992-10-29",42.08,32.00,10.00,0.00,0.00
"USC00503605","1992-10-30",42.08,32.00,0.00,0.00,0.00
"USC00503605","1992-10-31",42.08,33.08,3.00,0.00,0.00
"USC00503605","1992-11-01",44.96,33.08,140.00,0.00,0.00
"USC00503605","1992-11-02",41.00,39.02,10.00,0.00,0.00
"USC00503605","1992-11-03",44.96,39.02,246.00,0.00,0.00
"USC00503605","1992-11-04",48.02,42.08,338.00,0.00,0.00
"USC00503605","1992-11-05",44.96,39.02,91.00,0.00,0.00
"USC00503605","1992-11-06",46.94,42.08,295.00,0.00,0.00
"USC00503605","1992-11-07",46.94,37.04,155.00,0.00,0.00
"USC00503605","1992-11-08",41.00,33.98,18.00,0.00,0.00
"USC00503605","1992-11-09",44.06,35.06,155.00,0.00,0.00
"USC00503605","1992-11-10",44.06,35.06,307.00,0.00,0.00
"USC00503605","1992-11-11",39.02,33.08,71.00,0.00,0.00
"USC00503605","1992-11-12",42.98,35.96,478.00,0.00,0.00
"USC00503605","1992-11-13",39.02,32.00,305.00,51.00,25.00
"USC00503605","1992-11-14",50.00,33.98,686.00,0.00,0.00
"USC00503605","1992-11-15",42.08,37.04,10.00,0.00,0.00
"USC00503605","1992-11-16",39.02,33.98,8.00,0.00,0.00
"USC00503605","1992-11-17",39.02,37.94,64.00,0.00,0.00
"USC00503605","1992-11-18",39.92,37.04,71.00,0.00,0.00
"USC00503605","1992-11-19",39.02,33.98,86.00,0.00,0.00
"USC00503605","1992-11-20",39.02,35.06,175.00,0.00,0.00
"USC00503605","1992-11-21",39.92,33.98,71.00,0.00,0.00
"USC00503605","1992-11-22",39.02,28.04,0.00,0.00,0.00
"USC00503605","1992-11-23",42.08,30.02,0.00,0.00,0.00
"USC00503605","1992-11-24",53.06,39.02,104.00,0.00,0.00
"USC00503605","1992-11-25",50.00,39.02,427.00,0.00,0.00
"USC00503605","1992-11-26",44.06,35.06,185.00,0.00,0.00
"USC00503605","1992-11-27",37.94,30.92,8.00,0.00,0.00
"USC00503605","1992-11-28",42.98,37.04,325.00,0.00,0.00
"USC00503605","1992-11-29",42.98,32.00,173.00,0.00,0.00
"USC00503605","1992-11-30",37.94,32.00,119.00,25.00,0.00
"USC00503605","1992-12-01",37.04,32.00,43.00,0.00,0.00
"USC00503605","1992-12-02",35.96,30.92,0.00,0.00,0.00
"USC00503605","1992-12-03",39.92,30.92,170.00,0.00,0.00
"USC00503605","1992-12-04",39.92,30.92,279.00,0.00,0.00
"USC00503605","1992-12-05",33.08,28.94,8.00,25.00,0.00
"USC00503605","1992-12-06",33.08,30.02,46.00,51.00,25.00
"USC00503605","1992-12-07",39.02,32.00,267.00,0.00,0.00
"USC00503605","1992-12-08",39.92,32.00,348.00,0.00,0.00
"USC00503605","1992-12-09",41.00,32.00,371.00,0.00,0.00
"USC00503605","1992-12-10",37.94,32.00,132.00,0.00,0.00
"USC00503605","1992-12-11",37.04,28.94,58.00,51.00,0.00
"USC00503605","1992-12-12",41.00,32.00,508.00,0.00,0.00
"USC00503605","1992-12-13",37.04,33.98,236.00,0.00,0.00
"USC00503605","1992-12-14",39.02,32.00,320.00,0.00,0.00
"USC00503605","1992-12-15",33.98,30.92,25.00,25.00,51.00
"USC00503605","1992-12-16",32.00,24.08,3.00,0.00,51.00
"USC00503605","1992-12-17",24.98,17.96,5.00,13.00,76.00
"USC00503605","1992-12-18",30.92,24.08,18.00,102.00,127.00
"USC00503605","1992-12-19",32.00,28.04,0.00,0.00,102.00
"USC00503605","1992-12-20",28.04,24.08,46.00,89.00,102.00
"USC00503605","1992-12-21",26.96,24.98,112.00,178.00,305.00
"USC00503605","1992-12-22",26.06,21.02,36.00,25.00,330.00
"USC00503605","1992-12-23",33.98,24.08,234.00,330.00,610.00
"USC00503605","1992-12-24",35.06,21.92,46.00,0.00,483.00
"USC00503605","1992-12-25",35.96,24.98,0.00,0.00,381.00
"USC00503605","1992-12-26",28.94,19.94,0.00,0.00,381.00
"USC00503605","1992-12-27",21.02,12.92,0.00,0.00,381.00
"USC00503605","1992-12-28",19.94,12.92,0.00,0.00,381.00
"USC00503605","1992-12-29",26.06,19.94,0.00,0.00,356.00
"USC00503605","1992-12-30",26.96,15.08,0.00,0.00,356.00
"USC00503605","1992-12-31",28.04,14.00,0.00,0.00,356.00
"USC00503605","1993-01-01",30.92,24.98,0.00,0.00,330.00
"USC00503605","1993-01-02",35.06,28.94,81.00,0.00,279.00
"USC00503605","1993-01-03",37.04,26.06,0.00,0.00,279.00
"USC00503605","1993-01-04",26.96,17.06,0.00,0.00,279.00
"USC00503605","1993-01-05",30.02,15.98,0.00,0.00,279.00
"USC00503605","1993-01-06",32.00,26.06,8.00,0.00,279.00
"USC00503605","1993-01-07",41.00,28.04,5.00,0.00,279.00
"USC00503605","1993-01-08",39.02,23.00,0.00,0.00,254.00
"USC00503605","1993-01-09",28.04,19.04,0.00,0.00,254.00
"USC00503605","1993-01-10",35.96,26.96,8.00,0.00,279.00
"USC00503605","1993-01-11",35.06,26.06,0.00,0.00,279.00
"USC00503605","1993-01-12",28.04,17.06,0.00,0.00,279.00
"USC00503605","1993-01-13",24.98,17.06,0.00,0.00,279.00
"USC00503605","1993-01-14",32.00,19.04,0.00,0.00,279.00
"USC00503605","1993-01-15",35.96,26.96,0.00,0.00,279.00
"USC00503605","1993-01-16",32.00,24.98,0.00,0.00,254.00
"USC00503605","1993-01-17",30.02,24.08,97.00,25.00,279.00
"USC00503605","1993-01-18",35.96,26.06,650.00,102.00,381.00
"USC00503605","1993-01-19",35.06,24.08,23.00,0.00,381.00
"USC00503605","1993-01-20",35.06,23.00,211.00,178.00,533.00
"USC00503605","1993-01-21",32.00,26.96,81.00,127.00,660.00
"USC00503605","1993-01-22",30.02,24.08,170.00,203.00,813.00
"USC00503605","1993-01-23",30.92,26.96,218.00,330.00,1016.00
"USC00503605","1993-01-24",30.02,23.00,5.00,0.00,1016.00
"USC00503605","1993-01-25",28.04,19.04,56.00,102.00,1067.00
"USC00503605","1993-01-26",33.08,26.06,51.00,76.00,991.00
"USC00503605","1993-01-27",28.94,15.08,0.00,0.00,965.00
"USC00503605","1993-01-28",42.08,15.08,152.00,51.00,838.00
"USC00503605","1993-01-29",53.06,33.98,752.00,0.00,660.00
"USC00503605","1993-01-30",42.98,33.08,196.00,0.00,559.00
"USC00503605","1993-01-31",42.98,32.00,605.00,51.00,381.00
"USC00503605","1993-02-01",37.94,32.00,66.00,102.00,483.00
"USC00503605","1993-02-02",32.00,23.00,18.00,51.00,533.00
"USC00503605","1993-02-03",24.08,19.04,345.00,533.00,991.00
"USC00503605","1993-02-04",26.06,19.04,287.00,229.00,1118.00
"USC00503605","1993-02-05",46.94,26.06,472.00,0.00,940.00
"USC00503605","1993-02-06",44.96,33.98,620.00,0.00,635.00
"USC00503605","1993-02-07",39.92,26.96,0.00,0.00,
"USC00503605","1993-02-08",42.08,33.08,0.00,0.00,
"USC00503605","1993-02-09",37.04,28.94,0.00,0.00,
"USC00503605","1993-02-10",35.96,26.96,0.00,0.00,
"USC00503605","1993-02-11",37.04,26.96,0.00,0.00,
"USC00503605","1993-02-12",37.94,28.04,0.00,0.00,
"USC00503605","1993-02-13",37.04,30.02,0.00,0.00,
"USC00503605","1993-02-14",35.06,33.08,0.00,0.00,
"USC00503605","1993-02-15",35.06,24.98,0.00,0.00,533.00
"USC00503605","1993-02-16",35.96,26.06,0.00,0.00,
"USC00503605","1993-02-17",39.02,26.96,0.00,0.00,533.00
"USC00503605","1993-02-18",44.96,28.04,0.00,0.00,508.00
"USC00503605","1993-02-19",39.92,26.06,0.00,0.00,483.00
"USC00503605","1993-02-20",37.94,24.08,0.00,0.00,483.00
"USC00503605","1993-02-21",33.08,19.04,0.00,0.00,483.00
"USC00503605","1993-02-22",57.02,24.08,0.00,0.00,483.00
"USC00503605","1993-02-23",37.04,21.92,0.00,0.00,483.00
"USC00503605","1993-02-24",35.96,24.08,0.00,0.00,483.00
"USC00503605","1993-02-25",35.06,32.00,218.00,51.00,533.00
"USC00503605","1993-02-26",39.02,33.08,546.00,0.00,533.00
"USC00503605","1993-02-27",41.00,37.04,330.00,0.00,483.00
"USC00503605","1993-02-28",42.08,33.08,157.00,0.00,432.00
"USC00503605","1993-03-01",39.92,33.08,226.00,0.00,432.00
"USC00503605","1993-03-02",39.92,30.92,8.00,0.00,406.00
"USC00503605","1993-03-03",,,257.00,25.00,406.00
"USC00503605","1993-03-04",41.00,33.08,142.00,0.00,381.00
"USC00503605","1993-03-05",39.92,33.98,404.00,0.00,381.00
"USC00503605","1993-03-06",39.92,33.08,114.00,0.00,381.00
"USC00503605","1993-03-07",39.92,30.92,5.00,0.00,381.00
"USC00503605","1993-03-08",37.94,32.00,170.00,25.00,381.00
"USC00503605","1993-03-09",37.94,26.96,15.00,0.00,381.00
"USC00503605","1993-03-10",39.02,26.06,0.00,0.00,381.00
"USC00503605","1993-03-11",37.94,26.06,0.00,0.00,381.00
"USC00503605","1993-03-12",42.98,32.00,231.00,0.00,356.00
"USC00503605","1993-03-13",39.02,33.08,124.00,0.00,356.00
"USC00503605","1993-03-14",39.92,30.92,23.00,0.00,356.00
"USC00503605","1993-03-15",35.96,26.96,0.00,0.00,356.00
"USC00503605","1993-03-16",35.06,21.02,0.00,0.00,356.00
"USC00503605","1993-03-17",35.96,21.02,0.00,0.00,356.00
"USC00503605","1993-03-18",35.96,21.92,0.00,0.00,330.00
"USC00503605","1993-03-19",39.02,28.04,0.00,0.00,330.00
"USC00503605","1993-03-20",39.92,32.00,191.00,51.00,356.00
"USC00503605","1993-03-21",39.92,33.98,307.00,0.00,305.00
"USC00503605","1993-03-22",44.06,33.98,470.00,0.00,279.00
"USC00503605","1993-03-23",42.98,33.08,693.00,0.00,254.00
"USC00503605","1993-03-24",35.96,30.02,165.00,127.00,
"USC00503605","1993-03-25",37.94,28.04,0.00,0.00,
"USC00503605","1993-03-26",37.04,21.92,0.00,0.00,
"USC00503605","1993-03-27",37.04,24.08,0.00,0.00,
"USC00503605","1993-03-28",,,,0.00,
"USC00503605","1993-03-29",39.02,35.06,,0.00,229.00
"USC00503605","1993-03-30",42.08,33.08,28.00,0.00,203.00
"USC00503605","1993-03-31",46.94,35.06,13.00,0.00,178.00
"USC00503605","1993-04-01",42.08,33.08,107.00,0.00,152.00
"USC00503605","1993-04-02",44.06,33.08,8.00,0.00,127.00
"USC00503605","1993-04-03",42.98,30.92,0.00,0.00,102.00
"USC00503605","1993-04-04",44.96,35.06,36.00,0.00,
"USC00503605","1993-04-05",42.08,35.06,117.00,0.00,
"USC00503605","1993-04-06",44.06,32.00,20.00,0.00,0.00
"USC00503605","1993-04-07",42.98,33.08,41.00,0.00,0.00
"USC00503605","1993-04-08",46.04,35.06,272.00,0.00,0.00
"USC00503605","1993-04-09",41.00,35.06,43.00,0.00,0.00
"USC00503605","1993-04-10",46.04,33.08,102.00,0.00,0.00
"USC00503605","1993-04-11",46.04,32.00,0.00,0.00,0.00
"USC00503605","1993-04-12",44.96,37.04,175.00,0.00,0.00
"USC00503605","1993-04-13",44.06,35.06,89.00,0.00,0.00
"USC00503605","1993-04-14",46.94,35.06,71.00,0.00,0.00
"USC00503605","1993-04-15",51.98,37.04,25.00,0.00,0.00
"USC00503605","1993-04-16",51.08,37.94,28.00,0.00,0.00
"USC00503605","1993-04-17",51.08,35.06,5.00,0.00,0.00
"USC00503605","1993-04-18",53.06,32.00,0.00,0.00,0.00
"USC00503605","1993-04-19",51.98,35.06,0.00,0.00,0.00
"USC00503605","1993-04-20",51.08,33.98,0.00,0.00,0.00
"USC00503605","1993-04-21",53.06,37.94,0.00,0.00,0.00
"USC00503605","1993-04-22",51.08,37.94,5.00,0.00,0.00
"USC00503605","1993-04-23",53.06,37.04,0.00,0.00,0.00
"USC00503605","1993-04-24",53.06,35.06,0.00,0.00,0.00
"USC00503605","1993-04-25",53.06,37.94,0.00,0.00,0.00
"USC00503605","1993-04-26",57.02,37.04,0.00,0.00,0.00
"USC00503605","1993-04-27",53.96,37.94,13.00,0.00,0.00
"USC00503605","1993-04-28",46.04,42.08,244.00,0.00,0.00
"USC00503605","1993-04-29",46.04,35.96,81.00,0.00,0.00
"USC00503605","1993-04-30",44.96,37.94,74.00,0.00,0.00
"USC00503605","1993-06-01",62.96,48.02,0.00,0.00,0.00
"USC00503605","1993-06-02",60.08,46.94,0.00,0.00,0.00
"USC00503605","1993-06-03",62.96,50.00,0.00,0.00,0.00
"USC00503605","1993-06-04",66.92,48.92,0.00,0.00,0.00
"USC00503605","1993-06-05",68.00,50.00,0.00,0.00,0.00
"USC00503605","1993-06-06",55.94,48.92,20.00,0.00,0.00
"USC00503605","1993-06-07",57.02,44.06,25.00,0.00,0.00
"USC00503605","1993-06-08",55.94,42.98,33.00,0.00,0.00
"USC00503605","1993-06-09",57.92,48.92,0.00,0.00,0.00
"USC00503605","1993-06-10",57.92,48.02,28.00,0.00,0.00
"USC00503605","1993-06-11",59.00,48.02,25.00,0.00,0.00
"USC00503605","1993-06-12",59.00,46.04,0.00,0.00,0.00
"USC00503605","1993-06-13",62.96,46.04,0.00,0.00,0.00
"USC00503605","1993-06-14",68.00,46.04,0.00,0.00,0.00
"USC00503605","1993-06-15",64.94,53.06,28.00,0.00,0.00
"USC00503605","1993-06-16",64.94,51.08,0.00,0.00,0.00
"USC00503605","1993-06-17",60.08,46.94,79.00,0.00,0.00
"USC00503605","1993-06-18",55.94,48.92,5.00,0.00,0.00
"USC00503605","1993-06-19",57.92,48.02,0.00,0.00,0.00
"USC00503605","1993-06-20",55.94,48.02,0.00,0.00,0.00
"USC00503605","1993-06-21",60.08,44.06,0.00,0.00,0.00
"USC00503605","1993-06-22",62.06,46.04,0.00,0.00,0.00
"USC00503605","1993-06-23",64.94,46.04,99.00,0.00,0.00
"USC00503605","1993-06-24",57.92,48.02,0.00,0.00,0.00
"USC00503605","1993-06-25",62.96,44.96,0.00,0.00,0.00
"USC00503605","1993-06-26",62.96,46.94,0.00,0.00,0.00
"USC00503605","1993-06-27",64.94,48.02,0.00,0.00,0.00
"USC00503605","1993-06-28",69.08,50.00,0.00,0.00,0.00
"USC00503605","1993-06-29",59.00,51.08,0.00,0.00,0.00
"USC00503605","1993-06-30",59.00,51.08,0.00,0.00,0.00
"USC00503605","1993-07-01",59.00,50.00,0.00,0.00,0.00
"USC00503605","1993-07-02",60.98,46.04,0.00,0.00,0.00
"USC00503605","1993-07-03",57.92,50.00,0.00,0.00,0.00
"USC00503605","1993-07-04",57.92,50.00,10.00,0.00,0.00
"USC00503605","1993-07-05",59.00,50.00,8.00,0.00,0.00
"USC00503605","1993-07-06",64.04,48.92,0.00,0.00,0.00
"USC00503605","1993-07-07",62.96,48.92,0.00,0.00,0.00
"USC00503605","1993-07-08",64.94,46.94,0.00,0.00,0.00
"USC00503605","1993-07-09",64.04,50.00,0.00,0.00,0.00
"USC00503605","1993-07-10",71.06,51.98,5.00,0.00,0.00
"USC00503605","1993-07-11",71.06,53.96,0.00,0.00,0.00
"USC00503605","1993-07-12",71.96,53.96,0.00,0.00,0.00
"USC00503605","1993-07-13",75.92,53.96,0.00,0.00,0.00
"USC00503605","1993-07-14",71.96,53.96,0.00,0.00,0.00
"USC00503605","1993-07-15",73.04,55.04,0.00,0.00,0.00
"USC00503605","1993-07-16",69.08,55.94,0.00,0.00,0.00
"USC00503605","1993-07-17",68.00,53.96,0.00,0.00,0.00
"USC00503605","1993-07-18",64.04,57.02,5.00,0.00,0.00
"USC00503605","1993-07-19",62.96,55.04,5.00,0.00,0.00
"USC00503605","1993-07-20",62.06,53.96,0.00,0.00,0.00
"USC00503605","1993-07-21",62.06,53.06,0.00,0.00,0.00
"USC00503605","1993-07-22",62.96,53.96,23.00,0.00,0.00
"USC00503605","1993-07-23",62.06,51.08,5.00,0.00,0.00
"USC00503605","1993-07-24",64.94,53.96,0.00,0.00,0.00
"USC00503605","1993-07-25",64.04,53.06,0.00,0.00,0.00
"USC00503605","1993-07-26",59.00,53.06,30.00,0.00,0.00
"USC00503605","1993-07-27",64.04,51.98,10.00,0.00,0.00
"USC00503605","1993-07-28",71.06,53.96,356.00,0.00,0.00
"USC00503605","1993-07-29",64.94,53.06,13.00,0.00,0.00
"USC00503605","1993-07-30",64.04,53.96,13.00,0.00,0.00
"USC00503605","1993-07-31",66.92,51.98,3.00,0.00,0.00
"USC00503605","1993-08-01",64.04,50.00,0.00,0.00,0.00
"USC00503605","1993-08-02",66.92,53.96,0.00,0.00,0.00
"USC00503605","1993-08-03",64.94,51.98,0.00,0.00,0.00
"USC00503605","1993-08-04",64.94,50.00,0.00,0.00,0.00
"USC00503605","1993-08-05",69.98,53.06,0.00,0.00,0.00
"USC00503605","1993-08-06",69.98,50.00,0.00,0.00,0.00
"USC00503605","1993-08-07",69.98,51.08,0.00,0.00,0.00
"USC00503605","1993-08-08",75.92,51.98,0.00,0.00,0.00
"USC00503605","1993-08-09",75.92,53.06,0.00,0.00,0.00
"USC00503605","1993-08-10",69.98,50.00,0.00,0.00,0.00
"USC00503605","1993-08-11",60.08,53.96,48.00,0.00,0.00
"USC00503605","1993-08-12",57.92,51.98,51.00,0.00,0.00
"USC00503605","1993-08-13",57.02,53.06,5.00,0.00,0.00
"USC00503605","1993-08-14",64.04,48.92,0.00,0.00,0.00
"USC00503605","1993-08-15",62.06,53.96,46.00,0.00,0.00
"USC00503605","1993-08-16",62.06,53.06,3.00,0.00,0.00
"USC00503605","1993-08-17",60.98,53.96,23.00,0.00,0.00
"USC00503605","1993-08-18",60.08,46.94,0.00,0.00,0.00
"USC00503605","1993-08-19",60.08,46.04,0.00,0.00,0.00
"USC00503605","1993-08-20",57.92,46.04,0.00,0.00,0.00
"USC00503605","1993-08-21",55.94,50.00,351.00,0.00,0.00
"USC00503605","1993-08-22",57.02,50.00,36.00,0.00,0.00
"USC00503605","1993-08-23",57.02,51.08,5.00,0.00,0.00
"USC00503605","1993-08-24",60.08,46.94,0.00,0.00,0.00
"USC00503605","1993-08-25",59.00,44.06,0.00,0.00,0.00
"USC00503605","1993-08-26",55.94,50.00,76.00,0.00,0.00
"USC00503605","1993-08-27",55.94,50.00,25.00,0.00,0.00
"USC00503605","1993-08-28",57.02,46.04,0.00,0.00,0.00
"USC00503605","1993-08-29",57.92,46.94,0.00,0.00,0.00
"USC00503605","1993-08-30",59.00,51.98,0.00,0.00,0.00
"USC00503605","1993-08-31",60.98,53.06,0.00,0.00,0.00
"USC00503605","1993-09-01",64.94,53.96,0.00,0.00,0.00
"USC00503605","1993-09-02",64.94,53.06,0.00,0.00,0.00
"USC00503605","1993-09-03",62.96,51.98,0.00,0.00,0.00
"USC00503605","1993-09-04",60.08,46.04,0.00,0.00,0.00
"USC00503605","1993-09-05",60.08,44.96,0.00,0.00,0.00
"USC00503605","1993-09-06",57.92,50.00,0.00,0.00,0.00
"USC00503605","1993-09-07",57.02,51.08,102.00,0.00,0.00
"USC00503605","1993-09-08",60.08,50.00,3.00,0.00,0.00
"USC00503605","1993-09-09",57.02,50.00,36.00,0.00,0.00
"USC00503605","1993-09-10",57.02,50.00,48.00,0.00,0.00
"USC00503605","1993-09-11",57.02,42.98,0.00,0.00,0.00
"USC00503605","1993-09-12",57.02,44.96,71.00,0.00,0.00
"USC00503605","1993-09-13",59.00,46.94,0.00,0.00,0.00
"USC00503605","1993-09-14",57.02,44.96,0.00,0.00,0.00
"USC00503605","1993-09-15",57.02,50.00,0.00,0.00,0.00
"USC00503605","1993-09-16",55.94,44.06,0.00,0.00,0.00
"USC00503605","1993-09-17",55.04,44.96,53.00,0.00,0.00
"USC00503605","1993-09-18",53.06,41.00,0.00,0.00,0.00
"USC00503605","1993-09-19",50.00,37.94,0.00,0.00,0.00
"USC00503605","1993-09-20",53.06,39.92,43.00,0.00,0.00
"USC00503605","1993-09-21",51.98,46.04,191.00,0.00,0.00
"USC00503605","1993-09-22",55.94,48.92,584.00,0.00,0.00
"USC00503605","1993-09-23",55.94,48.02,51.00,0.00,0.00
"USC00503605","1993-09-24",55.04,44.96,0.00,0.00,0.00
"USC00503605","1993-09-25",50.00,44.06,198.00,0.00,0.00
"USC00503605","1993-09-26",53.06,46.94,28.00,0.00,0.00
"USC00503605","1993-09-27",53.06,44.06,10.00,0.00,0.00
"USC00503605","1993-09-28",51.08,48.02,147.00,0.00,0.00
"USC00503605","1993-09-29",53.96,46.94,69.00,0.00,0.00
"USC00503605","1993-09-30",50.00,44.06,8.00,0.00,0.00
"USC00503605","1993-10-01",51.98,48.02,23.00,0.00,0.00
"USC00503605","1993-10-02",53.06,48.92,33.00,0.00,0.00
"USC00503605","1993-10-03",53.06,46.94,0.00,0.00,0.00
"USC00503605","1993-10-04",53.06,48.02,112.00,0.00,0.00
"USC00503605","1993-10-05",53.96,48.02,356.00,0.00,0.00
"USC00503605","1993-10-06",50.00,39.92,0.00,0.00,0.00
"USC00503605","1993-10-07",48.02,37.94,0.00,0.00,0.00
"USC00503605","1993-10-08",51.08,39.92,0.00,0.00,0.00
"USC00503605","1993-10-09",53.96,42.08,0.00,0.00,0.00
"USC00503605","1993-10-10",50.00,44.96,0.00,0.00,0.00
"USC00503605","1993-10-11",50.00,48.02,0.00,0.00,0.00
"USC00503605","1993-10-12",48.92,41.00,0.00,0.00,0.00
"USC00503605","1993-10-13",48.02,41.00,0.00,0.00,0.00
"USC00503605","1993-10-14",48.02,46.04,0.00,0.00,0.00
"USC00503605","1993-10-15",46.94,44.96,0.00,0.00,0.00
"USC00503605","1993-10-16",48.92,44.06,132.00,0.00,0.00
"USC00503605","1993-10-17",48.92,42.98,343.00,0.00,0.00
"USC00503605","1993-10-18",46.04,37.94,51.00,0.00,0.00
"USC00503605","1993-10-19",46.04,37.04,33.00,0.00,0.00
"USC00503605","1993-10-20",48.02,39.92,597.00,0.00,0.00
"USC00503605","1993-10-21",44.06,39.02,203.00,0.00,0.00
"USC00503605","1993-10-22",46.94,41.00,620.00,0.00,0.00
"USC00503605","1993-10-23",48.92,42.98,401.00,0.00,0.00
"USC00503605","1993-10-24",44.96,37.04,0.00,0.00,0.00
"USC00503605","1993-10-25",50.00,39.92,610.00,0.00,0.00
"USC00503605","1993-10-26",48.92,39.92,307.00,0.00,0.00
"USC00503605","1993-10-27",46.04,42.98,0.00,0.00,0.00
"USC00503605","1993-10-28",48.92,42.08,48.00,0.00,0.00
"USC00503605","1993-10-29",53.06,42.98,74.00,0.00,0.00
"USC00503605","1993-10-30",46.04,39.92,241.00,0.00,0.00
"USC00503605","1993-10-31",44.96,39.92,104.00,0.00,0.00
"USC00503605","1993-11-01",46.94,39.92,439.00,0.00,0.00
"USC00503605","1993-11-02",46.94,39.92,259.00,0.00,0.00
"USC00503605","1993-11-03",48.02,35.06,0.00,0.00,0.00
"USC00503605","1993-11-04",44.06,33.08,0.00,0.00,0.00
"USC00503605","1993-11-05",44.06,39.92,231.00,0.00,0.00
"USC00503605","1993-11-06",46.04,41.00,3.00,0.00,0.00
"USC00503605","1993-11-07",44.96,39.92,36.00,0.00,0.00
"USC00503605","1993-11-08",42.98,37.04,23.00,0.00,0.00
"USC00503605","1993-11-09",42.08,35.06,5.00,0.00,0.00
"USC00503605","1993-11-10",44.96,39.92,157.00,0.00,0.00
"USC00503605","1993-11-11",46.94,37.04,0.00,0.00,0.00
"USC00503605","1993-11-12",44.06,35.96,66.00,0.00,0.00
"USC00503605","1993-11-13",44.06,35.06,460.00,0.00,0.00
"USC00503605","1993-11-14",48.02,35.06,391.00,0.00,0.00
"USC00503605","1993-11-15",37.94,33.08,41.00,0.00,0.00
"USC00503605","1993-11-16",35.96,32.00,0.00,0.00,0.00
"USC00503605","1993-11-17",39.02,32.00,13.00,0.00,0.00
"USC00503605","1993-11-18",44.96,33.98,236.00,0.00,0.00
"USC00503605","1993-11-19",51.98,33.08,462.00,0.00,0.00
"USC00503605","1993-11-20",41.00,17.96,246.00,254.00,254.00
"USC00503605","1993-11-21",23.00,17.96,0.00,0.00,254.00
"USC00503605","1993-11-22",26.06,17.96,0.00,0.00,229.00
"USC00503605","1993-11-23",37.94,21.02,89.00,0.00,102.00
"USC00503605","1993-11-24",39.92,33.98,328.00,0.00,25.00
"USC00503605","1993-11-25",46.94,37.94,1214.00,0.00,0.00
"USC00503605","1993-11-26",46.04,33.98,99.00,0.00,0.00
"USC00503605","1993-11-27",37.94,33.98,79.00,0.00,0.00
"USC00503605","1993-11-28",42.98,33.98,307.00,0.00,0.00
"USC00503605","1993-11-29",37.04,30.92,28.00,0.00,0.00
"USC00503605","1993-11-30",39.92,30.92,211.00,0.00,0.00
"USC00503605","1993-12-01",39.92,35.06,526.00,0.00,0.00
"USC00503605","1993-12-02",42.98,35.96,381.00,0.00,0.00
"USC00503605","1993-12-03",37.94,33.08,76.00,0.00,0.00
"USC00503605","1993-12-04",39.02,32.00,10.00,,0.00
"USC00503605","1993-12-05",37.94,32.00,282.00,0.00,0.00
"USC00503605","1993-12-06",37.94,37.04,533.00,0.00,0.00
"USC00503605","1993-12-07",39.92,32.00,257.00,0.00,0.00
"USC00503605","1993-12-08",37.04,32.00,30.00,0.00,0.00
"USC00503605","1993-12-09",35.96,30.92,13.00,25.00,25.00
"USC00503605","1993-12-10",35.06,30.92,340.00,178.00,203.00
"USC00503605","1993-12-11",33.98,32.00,46.00,0.00,152.00
"USC00503605","1993-12-12",33.08,28.94,25.00,25.00,178.00
"USC00503605","1993-12-13",33.08,30.02,86.00,51.00,229.00
"USC00503605","1993-12-14",33.08,32.00,10.00,0.00,203.00
"USC00503605","1993-12-15",39.92,33.08,318.00,0.00,102.00
"USC00503605","1993-12-16",39.92,33.98,305.00,0.00,51.00
"USC00503605","1993-12-17",42.08,33.98,450.00,0.00,0.00
"USC00503605","1993-12-18",41.00,35.06,89.00,0.00,0.00
"USC00503605","1993-12-19",44.96,35.06,170.00,0.00,0.00
"USC00503605","1993-12-20",37.04,30.92,36.00,0.00,0.00
"USC00503605","1993-12-21",41.00,33.98,488.00,0.00,0.00
"USC00503605","1993-12-22",39.92,33.08,132.00,0.00,0.00
"USC00503605","1993-12-23",44.06,39.02,254.00,0.00,0.00
"USC00503605","1993-12-24",42.98,37.04,483.00,0.00,0.00
"USC00503605","1993-12-25",42.98,33.08,64.00,0.00,0.00
"USC00503605","1993-12-26",37.04,32.00,5.00,0.00,0.00
"USC00503605","1993-12-27",39.92,35.96,56.00,0.00,0.00
"USC00503605","1993-12-28",44.96,39.02,358.00,0.00,0.00
"USC00503605","1993-12-29",44.96,35.06,165.00,0.00,0.00
"USC00503605","1993-12-30",39.02,33.98,5.00,0.00,0.00